Wetterdaten: Sonntag, 12.04.2015
Datum Zeit Auen-Temp. Temp gefhlt Luftfeuchte Luftdruck Regen Wind Richtung Richtung Taupunkt Windben
12.04.2015 00:00 9,1 C 9,0 C 63 % 1027,8 hPa 0,0 mm 4,9 km/h (1 Bft) SW 225 2,4 C 5,4 km/h (1 Bft)
12.04.2015 00:05 9,2 C 9,1 C 63 % 1027,8 hPa 0,0 mm 4,9 km/h (1 Bft) W-SW 247 2,5 C 4,9 km/h (1 Bft)
12.04.2015 00:10 9,2 C 9,2 C 62 % 1027,8 hPa 0,0 mm 4,7 km/h (1 Bft) SW 225 2,3 C 6,0 km/h (2 Bft)
12.04.2015 00:15 9,3 C 9,3 C 62 % 1027,8 hPa 0,0 mm 4,7 km/h (1 Bft) W-SW 247 2,4 C 7,8 km/h (2 Bft)
12.04.2015 00:20 9,4 C 9,3 C 62 % 1027,8 hPa 0,0 mm 5,2 km/h (1 Bft) W-SW 247 2,5 C 7,8 km/h (2 Bft)
12.04.2015 00:25 9,4 C 9,4 C 62 % 1027,9 hPa 0,0 mm 5,4 km/h (1 Bft) SW 225 2,5 C 9,8 km/h (2 Bft)
12.04.2015 00:30 9,4 C 9,4 C 61 % 1027,9 hPa 0,0 mm 4,9 km/h (1 Bft) SW 225 2,3 C 6,5 km/h (2 Bft)
12.04.2015 00:35 9,3 C 9,3 C 61 % 1027,9 hPa 0,0 mm 4,1 km/h (1 Bft) SW 225 2,2 C 5,4 km/h (1 Bft)
12.04.2015 00:40 9,2 C 9,2 C 62 % 1027,9 hPa 0,0 mm 3,4 km/h (1 Bft) W-SW 247 2,3 C 3,6 km/h (1 Bft)
12.04.2015 00:45 9,1 C 9,2 C 62 % 1027,9 hPa 0,0 mm 3,6 km/h (1 Bft) SW 225 2,2 C 7,0 km/h (2 Bft)
12.04.2015 00:50 9,1 C 9,2 C 63 % 1027,9 hPa 0,0 mm 4,1 km/h (1 Bft) S-SW 202 2,4 C 4,9 km/h (1 Bft)
12.04.2015 00:55 9,1 C 9,1 C 63 % 1027,9 hPa 0,0 mm 5,2 km/h (1 Bft) SW 225 2,4 C 10,1 km/h (2 Bft)
12.04.2015 01:00 9,1 C 9,1 C 63 % 1027,9 hPa 0,0 mm 5,2 km/h (1 Bft) SW 225 2,4 C 6,7 km/h (2 Bft)
12.04.2015 01:05 9,1 C 9,2 C 63 % 1028,1 hPa 0,0 mm 5,7 km/h (1 Bft) S 180 2,4 C 7,3 km/h (2 Bft)
12.04.2015 01:10 9,1 C 9,2 C 63 % 1028,1 hPa 0,0 mm 6,0 km/h (2 Bft) SW 225 2,4 C 6,2 km/h (2 Bft)
12.04.2015 01:15 9,0 C 9,2 C 63 % 1028,1 hPa 0,0 mm 5,4 km/h (1 Bft) SW 225 2,3 C 5,4 km/h (1 Bft)
12.04.2015 01:20 9,1 C 9,1 C 63 % 1028,1 hPa 0,0 mm 5,2 km/h (1 Bft) SW 225 2,4 C 6,5 km/h (2 Bft)
12.04.2015 01:25 9,1 C 9,2 C 63 % 1028,2 hPa 0,0 mm 5,7 km/h (1 Bft) SW 225 2,4 C 8,8 km/h (2 Bft)
12.04.2015 01:30 9,1 C 9,2 C 63 % 1028,2 hPa 0,0 mm 6,2 km/h (2 Bft) S 180 2,4 C 8,5 km/h (2 Bft)
12.04.2015 01:35 9,0 C 9,1 C 63 % 1028,2 hPa 0,0 mm 5,2 km/h (1 Bft) S 180 2,3 C 2,8 km/h (1 Bft)
12.04.2015 01:40 8,9 C 9,0 C 63 % 1028,2 hPa 0,0 mm 4,1 km/h (1 Bft) W-SW 247 2,2 C 3,4 km/h (1 Bft)
12.04.2015 01:45 8,6 C 8,8 C 63 % 1028,1 hPa 0,0 mm 3,6 km/h (1 Bft) S-SW 202 2,0 C 0,0 km/h (0 Bft)
12.04.2015 01:50 8,5 C 8,6 C 64 % 1028,1 hPa 0,0 mm 3,1 km/h (1 Bft) S 180 2,1 C 7,3 km/h (2 Bft)
12.04.2015 01:55 8,5 C 8,5 C 65 % 1028,1 hPa 0,0 mm 3,1 km/h (1 Bft) SW 225 2,3 C 10,4 km/h (2 Bft)
12.04.2015 02:00 8,4 C 8,4 C 65 % 1028,1 hPa 0,0 mm 4,1 km/h (1 Bft) W-SW 247 2,2 C 7,5 km/h (2 Bft)
12.04.2015 02:05 8,3 C 8,3 C 65 % 1028,0 hPa 0,0 mm 4,1 km/h (1 Bft) S-SO 157 2,1 C 2,8 km/h (1 Bft)
12.04.2015 02:10 7,8 C 8,2 C 65 % 1028,0 hPa 0,0 mm 2,6 km/h (1 Bft) S 180 1,6 C 0,0 km/h (0 Bft)
12.04.2015 02:15 6,9 C 7,4 C 66 % 1028,0 hPa 0,0 mm 0,3 km/h (0 Bft) S-SO 157 1,0 C 0,0 km/h (0 Bft)
12.04.2015 02:20 6,6 C 6,9 C 67 % 1028,0 hPa 0,0 mm 0,0 km/h (0 Bft) S-SO 157 0,9 C 0,0 km/h (0 Bft)
12.04.2015 02:25 6,4 C 6,3 C 68 % 1028,1 hPa 0,0 mm 0,0 km/h (0 Bft) S-SO 157 0,9 C 0,0 km/h (0 Bft)
12.04.2015 02:30 6,3 C 6,2 C 68 % 1028,1 hPa 0,0 mm 0,0 km/h (0 Bft) S-SO 157 0,8 C 0,0 km/h (0 Bft)
12.04.2015 02:35 6,8 C 6,4 C 72 % 1028,1 hPa 0,0 mm 0,0 km/h (0 Bft) S-SO 157 2,1 C 0,0 km/h (0 Bft)
12.04.2015 02:40 6,5 C 6,2 C 70 % 1028,1 hPa 0,0 mm 0,0 km/h (0 Bft) NW 315 1,4 C 0,0 km/h (0 Bft)
12.04.2015 02:45 6,8 C 6,6 C 70 % 1028,1 hPa 0,0 mm 0,0 km/h (0 Bft) W 270 1,7 C 0,0 km/h (0 Bft)
12.04.2015 02:50 7,1 C 6,8 C 71 % 1028,1 hPa 0,0 mm 0,3 km/h (0 Bft) S-SW 202 2,2 C 4,7 km/h (1 Bft)
12.04.2015 02:55 6,9 C 6,9 C 72 % 1028,1 hPa 0,0 mm 0,8 km/h (0 Bft) S-SO 157 2,2 C 0,0 km/h (0 Bft)
12.04.2015 03:00 7,0 C 7,0 C 70 % 1028,1 hPa 0,0 mm 1,8 km/h (1 Bft) S 180 1,9 C 2,6 km/h (1 Bft)
12.04.2015 03:05 7,3 C 7,3 C 71 % 1028,4 hPa 0,0 mm 1,6 km/h (1 Bft) SW 225 2,4 C 0,0 km/h (0 Bft)
12.04.2015 03:10 7,4 C 7,5 C 71 % 1028,4 hPa 0,0 mm 0,5 km/h (0 Bft) S 180 2,5 C 0,0 km/h (0 Bft)
12.04.2015 03:15 7,4 C 7,5 C 71 % 1028,4 hPa 0,0 mm 0,3 km/h (0 Bft) S-SW 202 2,5 C 0,0 km/h (0 Bft)
12.04.2015 03:20 7,3 C 7,5 C 71 % 1028,4 hPa 0,0 mm 0,3 km/h (0 Bft) S 180 2,4 C 0,0 km/h (0 Bft)
12.04.2015 03:25 7,1 C 7,2 C 72 % 1028,4 hPa 0,0 mm 0,8 km/h (0 Bft) S-SW 202 2,4 C 9,8 km/h (2 Bft)
12.04.2015 03:30 7,4 C 7,5 C 71 % 1028,4 hPa 0,0 mm 2,1 km/h (1 Bft) S 180 2,5 C 0,0 km/h (0 Bft)
12.04.2015 03:35 7,5 C 7,5 C 72 % 1028,4 hPa 0,0 mm 2,1 km/h (1 Bft) SW 225 2,8 C 0,0 km/h (0 Bft)
12.04.2015 03:40 7,5 C 7,6 C 71 % 1028,4 hPa 0,0 mm 1,8 km/h (1 Bft) S 180 2,6 C 8,5 km/h (2 Bft)
12.04.2015 03:45 7,6 C 7,7 C 71 % 1028,4 hPa 0,0 mm 3,9 km/h (1 Bft) S-SO 157 2,7 C 8,0 km/h (2 Bft)
12.04.2015 03:50 7,7 C 7,8 C 71 % 1028,4 hPa 0,0 mm 5,2 km/h (1 Bft) S 180 2,8 C 6,5 km/h (2 Bft)
12.04.2015 03:55 7,4 C 7,9 C 71 % 1028,4 hPa 0,0 mm 4,9 km/h (1 Bft) S 180 2,5 C 3,4 km/h (1 Bft)
12.04.2015 04:00 7,4 C 7,8 C 71 % 1028,4 hPa 0,0 mm 3,9 km/h (1 Bft) S 180 2,5 C 4,7 km/h (1 Bft)
12.04.2015 04:05 7,6 C 8,0 C 71 % 1028,6 hPa 0,0 mm 5,7 km/h (1 Bft) S 180 2,7 C 15,0 km/h (3 Bft)
12.04.2015 04:10 8,0 C 7,9 C 70 % 1028,6 hPa 0,0 mm 7,5 km/h (2 Bft) SW 225 2,9 C 10,1 km/h (2 Bft)
12.04.2015 04:15 8,0 C 7,9 C 70 % 1028,6 hPa 0,0 mm 8,0 km/h (2 Bft) S-SO 157 2,9 C 5,7 km/h (1 Bft)
12.04.2015 04:20 8,0 C 7,9 C 69 % 1028,6 hPa 0,0 mm 8,0 km/h (2 Bft) SW 225 2,7 C 12,9 km/h (3 Bft)
12.04.2015 04:25 8,0 C 7,9 C 69 % 1028,6 hPa 0,0 mm 7,8 km/h (2 Bft) W-SW 247 2,7 C 8,0 km/h (2 Bft)
12.04.2015 04:30 7,9 C 7,8 C 69 % 1028,6 hPa 0,0 mm 7,3 km/h (2 Bft) S 180 2,6 C 9,1 km/h (2 Bft)
12.04.2015 04:35 7,8 C 7,7 C 69 % 1028,6 hPa 0,0 mm 7,5 km/h (2 Bft) S 180 2,5 C 6,0 km/h (2 Bft)
12.04.2015 04:40 7,6 C 7,6 C 70 % 1028,6 hPa 0,0 mm 6,7 km/h (2 Bft) S-SW 202 2,5 C 5,2 km/h (1 Bft)
12.04.2015 04:45 7,6 C 7,7 C 70 % 1028,7 hPa 0,0 mm 6,0 km/h (2 Bft) S 180 2,5 C 9,1 km/h (2 Bft)
12.04.2015 04:50 7,5 C 7,5 C 70 % 1028,7 hPa 0,0 mm 6,2 km/h (2 Bft) SW 225 2,4 C 8,5 km/h (2 Bft)
12.04.2015 04:55 7,3 C 7,4 C 70 % 1028,7 hPa 0,0 mm 4,9 km/h (1 Bft) SW 225 2,2 C 9,3 km/h (2 Bft)
12.04.2015 05:00 7,2 C 7,2 C 70 % 1028,7 hPa 0,0 mm 4,1 km/h (1 Bft) S 180 2,1 C 7,3 km/h (2 Bft)
12.04.2015 05:05 7,1 C 7,2 C 70 % 1028,8 hPa 0,0 mm 5,2 km/h (1 Bft) S 180 2,0 C 3,4 km/h (1 Bft)
12.04.2015 05:10 7,2 C 7,2 C 71 % 1028,8 hPa 0,0 mm 4,9 km/h (1 Bft) SW 225 2,3 C 8,8 km/h (2 Bft)
12.04.2015 05:15 7,2 C 7,2 C 71 % 1028,8 hPa 0,0 mm 5,7 km/h (1 Bft) S-SO 157 2,3 C 15,5 km/h (3 Bft)
12.04.2015 05:20 7,1 C 7,0 C 71 % 1028,8 hPa 0,0 mm 6,7 km/h (2 Bft) W 270 2,2 C 9,8 km/h (2 Bft)
12.04.2015 05:25 7,1 C 7,1 C 71 % 1028,8 hPa 0,0 mm 6,2 km/h (2 Bft) S 180 2,2 C 3,9 km/h (1 Bft)
12.04.2015 05:30 7,4 C 7,2 C 71 % 1028,8 hPa 0,0 mm 7,3 km/h (2 Bft) S-SW 202 2,5 C 8,8 km/h (2 Bft)
12.04.2015 05:35 7,4 C 7,2 C 71 % 1028,8 hPa 0,0 mm 8,5 km/h (2 Bft) SW 225 2,5 C 22,0 km/h (4 Bft)
12.04.2015 05:40 7,4 C 7,1 C 71 % 1028,8 hPa 0,0 mm 9,1 km/h (2 Bft) S-SW 202 2,5 C 14,0 km/h (3 Bft)
12.04.2015 05:45 7,3 C 7,1 C 71 % 1028,8 hPa 0,0 mm 9,1 km/h (2 Bft) S-SW 202 2,4 C 7,8 km/h (2 Bft)
12.04.2015 05:50 7,3 C 7,0 C 71 % 1028,8 hPa 0,0 mm 9,6 km/h (2 Bft) S-SW 202 2,4 C 15,0 km/h (3 Bft)
12.04.2015 05:55 7,4 C 7,1 C 71 % 1028,8 hPa 0,0 mm 9,3 km/h (2 Bft) S 180 2,5 C 17,6 km/h (3 Bft)
12.04.2015 06:00 7,3 C 7,0 C 71 % 1028,8 hPa 0,0 mm 9,8 km/h (2 Bft) SW 225 2,4 C 9,1 km/h (2 Bft)
12.04.2015 06:05 7,2 C 7,0 C 71 % 1028,7 hPa 0,0 mm 8,8 km/h (2 Bft) S 180 2,3 C 8,3 km/h (2 Bft)
12.04.2015 06:10 7,3 C 7,2 C 71 % 1028,7 hPa 0,0 mm 7,0 km/h (2 Bft) S 180 2,4 C 11,1 km/h (2 Bft)
12.04.2015 06:15 7,0 C 7,1 C 71 % 1028,7 hPa 0,0 mm 6,2 km/h (2 Bft) S 180 2,1 C 7,0 km/h (2 Bft)
12.04.2015 06:20 6,9 C 7,1 C 72 % 1028,7 hPa 0,0 mm 4,7 km/h (1 Bft) S 180 2,2 C 5,7 km/h (1 Bft)
12.04.2015 06:25 6,8 C 7,0 C 72 % 1029,0 hPa 0,0 mm 3,4 km/h (1 Bft) S 180 2,1 C 0,0 km/h (0 Bft)
12.04.2015 06:30 6,7 C 6,9 C 73 % 1029,0 hPa 0,0 mm 2,6 km/h (1 Bft) S 180 2,2 C 0,0 km/h (0 Bft)
12.04.2015 06:35 6,7 C 6,8 C 73 % 1029,0 hPa 0,0 mm 1,0 km/h (0 Bft) S 180 2,2 C 0,0 km/h (0 Bft)
12.04.2015 06:40 6,6 C 6,7 C 74 % 1029,0 hPa 0,0 mm 0,5 km/h (0 Bft) S-SO 157 2,3 C 0,0 km/h (0 Bft)
12.04.2015 06:45 6,3 C 6,4 C 74 % 1028,9 hPa 0,0 mm 0,0 km/h (0 Bft) SO 135 2,0 C 0,0 km/h (0 Bft)
12.04.2015 06:50 6,2 C 6,2 C 73 % 1028,9 hPa 0,0 mm 0,0 km/h (0 Bft) SO 135 1,7 C 0,0 km/h (0 Bft)
12.04.2015 06:55 6,2 C 6,1 C 74 % 1028,9 hPa 0,0 mm 0,0 km/h (0 Bft) SO 135 1,9 C 0,0 km/h (0 Bft)
12.04.2015 07:00 6,2 C 6,1 C 74 % 1028,9 hPa 0,0 mm 0,0 km/h (0 Bft) SO 135 1,9 C 0,0 km/h (0 Bft)
12.04.2015 07:05 6,2 C 6,1 C 74 % 1029,0 hPa 0,0 mm 0,0 km/h (0 Bft) SO 135 1,9 C 0,0 km/h (0 Bft)
12.04.2015 07:10 6,3 C 6,2 C 74 % 1029,0 hPa 0,0 mm 0,0 km/h (0 Bft) SO 135 2,0 C 0,0 km/h (0 Bft)
12.04.2015 07:15 6,3 C 6,2 C 75 % 1029,0 hPa 0,0 mm 0,0 km/h (0 Bft) SO 135 2,2 C 0,0 km/h (0 Bft)
12.04.2015 07:20 6,4 C 6,3 C 75 % 1029,0 hPa 0,0 mm 0,0 km/h (0 Bft) SO 135 2,3 C 0,0 km/h (0 Bft)
12.04.2015 07:25 6,4 C 6,4 C 73 % 1029,1 hPa 0,0 mm 0,0 km/h (0 Bft) SO 135 1,9 C 0,0 km/h (0 Bft)
12.04.2015 07:30 6,4 C 6,4 C 73 % 1029,1 hPa 0,0 mm 0,0 km/h (0 Bft) SO 135 1,9 C 0,0 km/h (0 Bft)
12.04.2015 07:35 6,5 C 6,5 C 73 % 1029,1 hPa 0,0 mm 0,0 km/h (0 Bft) SO 135 2,0 C 0,0 km/h (0 Bft)
12.04.2015 07:40 6,5 C 6,6 C 73 % 1029,1 hPa 0,0 mm 0,0 km/h (0 Bft) SO 135 2,0 C 0,0 km/h (0 Bft)
12.04.2015 07:45 6,6 C 6,6 C 73 % 1029,2 hPa 0,0 mm 0,0 km/h (0 Bft) SO 135 2,1 C 0,0 km/h (0 Bft)
12.04.2015 07:50 6,7 C 6,8 C 73 % 1029,2 hPa 0,0 mm 0,0 km/h (0 Bft) SO 135 2,2 C 0,0 km/h (0 Bft)
12.04.2015 07:55 6,8 C 6,9 C 73 % 1029,2 hPa 0,0 mm 0,0 km/h (0 Bft) SO 135 2,3 C 0,0 km/h (0 Bft)
12.04.2015 08:00 6,8 C 7,1 C 74 % 1029,2 hPa 0,0 mm 0,0 km/h (0 Bft) SO 135 2,5 C 0,0 km/h (0 Bft)
12.04.2015 08:05 7,1 C 7,4 C 73 % 1029,3 hPa 0,0 mm 0,0 km/h (0 Bft) SO 135 2,6 C 0,0 km/h (0 Bft)
12.04.2015 08:10 7,2 C 7,7 C 73 % 1029,3 hPa 0,0 mm 0,0 km/h (0 Bft) SO 135 2,7 C 0,0 km/h (0 Bft)
12.04.2015 08:15 7,4 C 8,0 C 73 % 1029,3 hPa 0,0 mm 0,0 km/h (0 Bft) SO 135 2,9 C 0,0 km/h (0 Bft)
12.04.2015 08:20 7,5 C 8,2 C 73 % 1029,3 hPa 0,0 mm 0,0 km/h (0 Bft) SO 135 3,0 C 0,0 km/h (0 Bft)
12.04.2015 08:25 7,6 C 8,5 C 73 % 1029,4 hPa 0,0 mm 0,0 km/h (0 Bft) SO 135 3,1 C 0,0 km/h (0 Bft)
12.04.2015 08:30 7,8 C 9,2 C 73 % 1029,4 hPa 0,0 mm 0,0 km/h (0 Bft) SO 135 3,3 C 0,0 km/h (0 Bft)
12.04.2015 08:35 8,3 C 10,4 C 72 % 1029,4 hPa 0,0 mm 0,0 km/h (0 Bft) SO 135 3,6 C 0,0 km/h (0 Bft)
12.04.2015 08:40 8,9 C 12,6 C 72 % 1029,4 hPa 0,0 mm 0,0 km/h (0 Bft) SO 135 4,1 C 0,0 km/h (0 Bft)
12.04.2015 08:45 9,4 C 14,8 C 71 % 1029,8 hPa 0,0 mm 0,0 km/h (0 Bft) SO 135 4,4 C 0,0 km/h (0 Bft)
12.04.2015 08:50 9,8 C 15,9 C 70 % 1029,8 hPa 0,0 mm 0,0 km/h (0 Bft) SO 135 4,6 C 0,0 km/h (0 Bft)
12.04.2015 08:55 10,5 C 18,2 C 68 % 1029,8 hPa 0,0 mm 0,0 km/h (0 Bft) SO 135 4,8 C 0,0 km/h (0 Bft)
12.04.2015 09:00 10,7 C 18,6 C 68 % 1029,8 hPa 0,0 mm 0,0 km/h (0 Bft) SO 135 5,0 C 0,0 km/h (0 Bft)
12.04.2015 09:05 11,3 C 19,2 C 67 % 1029,7 hPa 0,0 mm 0,0 km/h (0 Bft) SO 135 5,4 C 0,0 km/h (0 Bft)
12.04.2015 09:10 11,7 C 19,3 C 66 % 1029,7 hPa 0,0 mm 0,3 km/h (0 Bft) N-NW 337 5,6 C 0,0 km/h (0 Bft)
12.04.2015 09:15 12,2 C 20,6 C 65 % 1029,7 hPa 0,0 mm 0,3 km/h (0 Bft) NO 45 5,8 C 0,0 km/h (0 Bft)
12.04.2015 09:20 12,6 C 21,3 C 64 % 1029,7 hPa 0,0 mm 0,0 km/h (0 Bft) NO 45 6,0 C 0,0 km/h (0 Bft)
12.04.2015 09:25 12,7 C 21,4 C 62 % 1030,1 hPa 0,0 mm 0,3 km/h (0 Bft) O-NO 67 5,6 C 0,0 km/h (0 Bft)
12.04.2015 09:30 12,9 C 21,4 C 62 % 1030,1 hPa 0,0 mm 0,3 km/h (0 Bft) O-SO 112 5,8 C 0,0 km/h (0 Bft)
12.04.2015 09:35 13,2 C 21,1 C 60 % 1030,1 hPa 0,0 mm 1,8 km/h (1 Bft) S 180 5,6 C 4,7 km/h (1 Bft)
12.04.2015 09:40 13,0 C 21,1 C 59 % 1030,1 hPa 0,0 mm 2,3 km/h (1 Bft) O-SO 112 5,2 C 4,4 km/h (1 Bft)
12.04.2015 09:45 13,3 C 20,6 C 59 % 1030,2 hPa 0,0 mm 2,3 km/h (1 Bft) NW 315 5,5 C 3,1 km/h (1 Bft)
12.04.2015 09:50 13,5 C 20,5 C 59 % 1030,2 hPa 0,0 mm 2,8 km/h (1 Bft) N-NO 22 5,6 C 0,0 km/h (0 Bft)
12.04.2015 09:55 13,8 C 20,9 C 59 % 1030,2 hPa 0,0 mm 2,6 km/h (1 Bft) SW 225 5,9 C 2,8 km/h (1 Bft)
12.04.2015 10:00 13,3 C 21,3 C 58 % 1030,2 hPa 0,0 mm 2,3 km/h (1 Bft) S 180 5,2 C 4,1 km/h (1 Bft)
12.04.2015 10:05 13,4 C 21,1 C 58 % 1030,2 hPa 0,0 mm 3,4 km/h (1 Bft) N-NW 337 5,3 C 7,3 km/h (2 Bft)
12.04.2015 10:10 13,2 C 20,1 C 58 % 1030,2 hPa 0,0 mm 3,9 km/h (1 Bft) N-NO 22 5,1 C 2,8 km/h (1 Bft)
12.04.2015 10:15 12,7 C 17,8 C 58 % 1030,2 hPa 0,0 mm 4,4 km/h (1 Bft) O-SO 112 4,7 C 0,0 km/h (0 Bft)
12.04.2015 10:20 12,4 C 16,3 C 59 % 1030,2 hPa 0,0 mm 2,3 km/h (1 Bft) O-NO 67 4,6 C 0,0 km/h (0 Bft)
12.04.2015 10:25 12,3 C 15,3 C 59 % 1030,4 hPa 0,0 mm 0,5 km/h (0 Bft) NO 45 4,5 C 2,8 km/h (1 Bft)
12.04.2015 10:30 12,2 C 14,8 C 59 % 1030,4 hPa 0,0 mm 0,5 km/h (0 Bft) O 90 4,4 C 0,0 km/h (0 Bft)
12.04.2015 10:35 12,2 C 14,5 C 59 % 1030,4 hPa 0,0 mm 0,0 km/h (0 Bft) O 90 4,4 C 0,0 km/h (0 Bft)
12.04.2015 10:40 12,5 C 14,5 C 59 % 1030,4 hPa 0,0 mm 0,0 km/h (0 Bft) O-NO 67 4,7 C 0,0 km/h (0 Bft)
12.04.2015 10:45 12,6 C 14,9 C 59 % 1030,2 hPa 0,0 mm 1,0 km/h (0 Bft) NO 45 4,8 C 4,4 km/h (1 Bft)
12.04.2015 10:50 12,5 C 14,6 C 59 % 1030,2 hPa 0,0 mm 1,0 km/h (0 Bft) O-SO 112 4,7 C 2,8 km/h (1 Bft)
12.04.2015 10:55 13,2 C 16,1 C 59 % 1030,2 hPa 0,0 mm 1,3 km/h (1 Bft) NO 45 5,4 C 4,1 km/h (1 Bft)
12.04.2015 11:00 13,6 C 18,1 C 58 % 1030,2 hPa 0,0 mm 2,1 km/h (1 Bft) N-NO 22 5,5 C 8,3 km/h (2 Bft)
12.04.2015 11:05 13,7 C 18,3 C 58 % 1030,2 hPa 0,0 mm 3,6 km/h (1 Bft) O-NO 67 5,6 C 5,4 km/h (1 Bft)
12.04.2015 11:10 14,1 C 19,1 C 58 % 1030,2 hPa 0,0 mm 3,6 km/h (1 Bft) N-NW 337 6,0 C 7,0 km/h (2 Bft)
12.04.2015 11:15 14,3 C 19,8 C 57 % 1030,2 hPa 0,0 mm 4,4 km/h (1 Bft) NW 315 5,9 C 3,6 km/h (1 Bft)
12.04.2015 11:20 14,5 C 20,0 C 57 % 1030,2 hPa 0,0 mm 4,9 km/h (1 Bft) NO 45 6,1 C 8,3 km/h (2 Bft)
12.04.2015 11:25 13,7 C 19,1 C 57 % 1030,4 hPa 0,0 mm 2,6 km/h (1 Bft) SO 135 5,3 C 0,0 km/h (0 Bft)
12.04.2015 11:30 13,6 C 17,9 C 57 % 1030,4 hPa 0,0 mm 2,1 km/h (1 Bft) O-NO 67 5,2 C 4,7 km/h (1 Bft)
12.04.2015 11:35 14,6 C 19,2 C 56 % 1030,4 hPa 0,0 mm 1,8 km/h (1 Bft) NW 315 5,9 C 4,9 km/h (1 Bft)
12.04.2015 11:40 15,0 C 20,7 C 55 % 1030,4 hPa 0,0 mm 3,6 km/h (1 Bft) O-NO 67 6,0 C 10,9 km/h (2 Bft)
12.04.2015 11:45 14,9 C 20,4 C 55 % 1030,3 hPa 0,0 mm 4,9 km/h (1 Bft) N-NO 22 5,9 C 0,0 km/h (0 Bft)
12.04.2015 11:50 15,5 C 21,3 C 55 % 1030,3 hPa 0,0 mm 6,0 km/h (2 Bft) O 90 6,5 C 9,1 km/h (2 Bft)
12.04.2015 11:55 14,6 C 20,0 C 54 % 1030,3 hPa 0,0 mm 5,4 km/h (1 Bft) N-NO 22 5,4 C 5,4 km/h (1 Bft)
12.04.2015 12:00 14,8 C 19,4 C 55 % 1030,3 hPa 0,0 mm 4,1 km/h (1 Bft) N-NW 337 5,8 C 4,1 km/h (1 Bft)
12.04.2015 12:05 15,5 C 20,8 C 53 % 1030,6 hPa 0,0 mm 4,1 km/h (1 Bft) SO 135 6,0 C 4,1 km/h (1 Bft)
12.04.2015 12:10 14,9 C 20,5 C 54 % 1030,6 hPa 0,0 mm 3,1 km/h (1 Bft) O-NO 67 5,7 C 0,0 km/h (0 Bft)
12.04.2015 12:15 14,2 C 18,7 C 54 % 1030,6 hPa 0,0 mm 3,6 km/h (1 Bft) NW 315 5,0 C 7,8 km/h (2 Bft)
12.04.2015 12:20 14,1 C 17,3 C 54 % 1030,6 hPa 0,0 mm 4,1 km/h (1 Bft) NO 45 4,9 C 0,0 km/h (0 Bft)
12.04.2015 12:25 14,7 C 17,5 C 55 % 1030,5 hPa 0,0 mm 4,4 km/h (1 Bft) N-NW 337 5,8 C 5,4 km/h (1 Bft)
12.04.2015 12:30 15,4 C 18,7 C 54 % 1030,5 hPa 0,0 mm 4,4 km/h (1 Bft) NW 315 6,1 C 10,4 km/h (2 Bft)
12.04.2015 12:35 14,9 C 18,3 C 53 % 1030,5 hPa 0,0 mm 4,9 km/h (1 Bft) O-SO 112 5,4 C 2,8 km/h (1 Bft)
12.04.2015 12:40 15,3 C 18,6 C 54 % 1030,5 hPa 0,0 mm 5,7 km/h (1 Bft) NW 315 6,0 C 7,3 km/h (2 Bft)
12.04.2015 12:45 15,9 C 20,6 C 53 % 1030,2 hPa 0,0 mm 4,9 km/h (1 Bft) NW 315 6,3 C 7,8 km/h (2 Bft)
12.04.2015 12:50 16,5 C 21,5 C 50 % 1030,2 hPa 0,0 mm 4,7 km/h (1 Bft) O 90 6,0 C 7,3 km/h (2 Bft)
12.04.2015 12:55 16,0 C 21,5 C 49 % 1030,2 hPa 0,0 mm 6,7 km/h (2 Bft) O-NO 67 5,3 C 10,9 km/h (2 Bft)
12.04.2015 13:00 15,8 C 21,0 C 50 % 1030,2 hPa 0,0 mm 8,0 km/h (2 Bft) SO 135 5,4 C 13,5 km/h (3 Bft)
12.04.2015 13:05 16,2 C 21,5 C 49 % 1030,3 hPa 0,0 mm 6,7 km/h (2 Bft) NO 45 5,5 C 3,1 km/h (1 Bft)
12.04.2015 13:10 16,5 C 22,0 C 48 % 1030,3 hPa 0,0 mm 4,9 km/h (1 Bft) NO 45 5,5 C 8,0 km/h (2 Bft)
12.04.2015 13:15 15,9 C 20,7 C 49 % 1030,3 hPa 0,0 mm 3,9 km/h (1 Bft) O-NO 67 5,2 C 3,1 km/h (1 Bft)
12.04.2015 13:20 16,9 C 20,7 C 49 % 1030,3 hPa 0,0 mm 3,4 km/h (1 Bft) N-NW 337 6,1 C 9,1 km/h (2 Bft)
12.04.2015 13:25 16,9 C 20,4 C 48 % 1030,2 hPa 0,0 mm 4,9 km/h (1 Bft) NW 315 5,8 C 9,1 km/h (2 Bft)
12.04.2015 13:30 16,2 C 19,2 C 47 % 1030,2 hPa 0,0 mm 6,0 km/h (2 Bft) S-SO 157 4,9 C 4,9 km/h (1 Bft)
12.04.2015 13:35 15,5 C 18,3 C 48 % 1030,2 hPa 0,0 mm 5,7 km/h (1 Bft) W 270 4,5 C 8,0 km/h (2 Bft)
12.04.2015 13:40 16,1 C 19,5 C 47 % 1030,2 hPa 0,0 mm 4,1 km/h (1 Bft) SO 135 4,8 C 2,8 km/h (1 Bft)
12.04.2015 13:45 16,9 C 21,4 C 48 % 1029,7 hPa 0,0 mm 2,1 km/h (1 Bft) NO 45 5,8 C 6,2 km/h (2 Bft)
12.04.2015 13:50 17,1 C 21,8 C 46 % 1029,7 hPa 0,0 mm 3,1 km/h (1 Bft) NO 45 5,4 C 7,8 km/h (2 Bft)
12.04.2015 13:55 17,6 C 23,2 C 46 % 1029,7 hPa 0,0 mm 6,2 km/h (2 Bft) SW 225 5,8 C 7,5 km/h (2 Bft)
12.04.2015 14:00 17,6 C 23,7 C 45 % 1029,7 hPa 0,0 mm 5,7 km/h (1 Bft) W-NW 292 5,5 C 10,4 km/h (2 Bft)
12.04.2015 14:05 17,7 C 24,1 C 45 % 1029,5 hPa 0,0 mm 5,4 km/h (1 Bft) W 270 5,6 C 7,5 km/h (2 Bft)
12.04.2015 14:10 17,1 C 23,0 C 44 % 1029,5 hPa 0,0 mm 5,2 km/h (1 Bft) O-NO 67 4,8 C 3,9 km/h (1 Bft)
12.04.2015 14:15 17,6 C 22,4 C 45 % 1029,5 hPa 0,0 mm 4,9 km/h (1 Bft) NW 315 5,5 C 10,1 km/h (2 Bft)
12.04.2015 14:20 18,2 C 23,1 C 45 % 1029,5 hPa 0,0 mm 5,7 km/h (1 Bft) N-NW 337 6,1 C 15,5 km/h (3 Bft)
12.04.2015 14:25 17,5 C 22,8 C 43 % 1029,3 hPa 0,0 mm 6,7 km/h (2 Bft) NO 45 4,8 C 11,7 km/h (2 Bft)
12.04.2015 14:30 17,3 C 21,9 C 42 % 1029,3 hPa 0,0 mm 7,3 km/h (2 Bft) O-NO 67 4,3 C 5,7 km/h (1 Bft)
12.04.2015 14:35 17,3 C 22,2 C 42 % 1029,3 hPa 0,0 mm 6,5 km/h (2 Bft) NO 45 4,3 C 4,9 km/h (1 Bft)
12.04.2015 14:40 17,3 C 22,6 C 44 % 1029,3 hPa 0,0 mm 6,0 km/h (2 Bft) O-NO 67 4,9 C 7,8 km/h (2 Bft)
12.04.2015 14:45 17,0 C 21,1 C 43 % 1029,1 hPa 0,0 mm 6,5 km/h (2 Bft) N-NO 22 4,3 C 3,1 km/h (1 Bft)
12.04.2015 14:50 17,3 C 21,0 C 43 % 1029,1 hPa 0,0 mm 7,3 km/h (2 Bft) N-NO 22 4,6 C 10,9 km/h (2 Bft)
12.04.2015 14:55 17,7 C 21,0 C 43 % 1029,1 hPa 0,0 mm 7,3 km/h (2 Bft) N-NW 337 5,0 C 10,6 km/h (2 Bft)
12.04.2015 15:00 18,1 C 21,5 C 43 % 1029,1 hPa 0,0 mm 8,0 km/h (2 Bft) N-NO 22 5,3 C 2,6 km/h (1 Bft)
12.04.2015 15:05 18,2 C 22,5 C 43 % 1028,6 hPa 0,0 mm 6,2 km/h (2 Bft) NW 315 5,4 C 6,5 km/h (2 Bft)
12.04.2015 15:10 18,5 C 22,7 C 43 % 1028,6 hPa 0,0 mm 5,7 km/h (1 Bft) W-NW 292 5,7 C 7,8 km/h (2 Bft)
12.04.2015 15:15 18,5 C 22,5 C 43 % 1028,6 hPa 0,0 mm 6,5 km/h (2 Bft) NW 315 5,7 C 8,8 km/h (2 Bft)
12.04.2015 15:20 18,6 C 22,8 C 42 % 1028,6 hPa 0,0 mm 6,5 km/h (2 Bft) W-NW 292 5,4 C 13,5 km/h (3 Bft)
12.04.2015 15:25 18,8 C 23,2 C 43 % 1028,4 hPa 0,0 mm 6,7 km/h (2 Bft) NW 315 6,0 C 4,4 km/h (1 Bft)
12.04.2015 15:30 18,9 C 23,3 C 42 % 1028,4 hPa 0,0 mm 7,0 km/h (2 Bft) NW 315 5,7 C 8,8 km/h (2 Bft)
12.04.2015 15:35 18,9 C 23,6 C 42 % 1028,4 hPa 0,0 mm 6,5 km/h (2 Bft) S 180 5,7 C 9,3 km/h (2 Bft)
12.04.2015 15:40 18,6 C 23,6 C 41 % 1028,4 hPa 0,0 mm 5,7 km/h (1 Bft) NW 315 5,1 C 6,0 km/h (2 Bft)
12.04.2015 15:45 18,6 C 22,9 C 42 % 1028,2 hPa 0,0 mm 7,0 km/h (2 Bft) NW 315 5,4 C 14,0 km/h (3 Bft)
12.04.2015 15:50 18,8 C 22,3 C 43 % 1028,2 hPa 0,0 mm 8,0 km/h (2 Bft) N-NW 337 6,0 C 7,0 km/h (2 Bft)
12.04.2015 15:55 18,8 C 22,0 C 42 % 1028,2 hPa 0,0 mm 10,4 km/h (2 Bft) N-NO 22 5,6 C 7,0 km/h (2 Bft)
12.04.2015 16:00 18,4 C 22,2 C 41 % 1028,2 hPa 0,0 mm 8,0 km/h (2 Bft) NW 315 4,9 C 0,0 km/h (0 Bft)
12.04.2015 16:05 18,8 C 22,8 C 42 % 1028,1 hPa 0,0 mm 7,0 km/h (2 Bft) NW 315 5,6 C 9,1 km/h (2 Bft)
12.04.2015 16:10 18,9 C 22,6 C 42 % 1028,1 hPa 0,0 mm 7,5 km/h (2 Bft) NW 315 5,7 C 7,5 km/h (2 Bft)
12.04.2015 16:15 18,3 C 22,6 C 41 % 1028,1 hPa 0,0 mm 7,3 km/h (2 Bft) N-NO 22 4,8 C 8,8 km/h (2 Bft)
12.04.2015 16:20 17,9 C 22,1 C 41 % 1028,1 hPa 0,0 mm 7,5 km/h (2 Bft) N-NO 22 4,5 C 5,2 km/h (1 Bft)
12.04.2015 16:25 18,0 C 21,6 C 42 % 1027,8 hPa 0,0 mm 8,5 km/h (2 Bft) NW 315 4,9 C 14,2 km/h (3 Bft)
12.04.2015 16:30 18,2 C 21,4 C 43 % 1027,8 hPa 0,0 mm 8,8 km/h (2 Bft) NW 315 5,4 C 14,2 km/h (3 Bft)
12.04.2015 16:35 18,4 C 22,0 C 42 % 1027,8 hPa 0,0 mm 8,3 km/h (2 Bft) N 360 5,3 C 9,8 km/h (2 Bft)
12.04.2015 16:40 17,9 C 22,0 C 42 % 1027,8 hPa 0,0 mm 7,0 km/h (2 Bft) NW 315 4,8 C 15,8 km/h (3 Bft)
12.04.2015 16:45 18,0 C 21,9 C 43 % 1027,5 hPa 0,0 mm 7,0 km/h (2 Bft) W-SW 247 5,2 C 5,2 km/h (1 Bft)
12.04.2015 16:50 17,8 C 21,4 C 43 % 1027,5 hPa 0,0 mm 7,5 km/h (2 Bft) N-NW 337 5,1 C 6,5 km/h (2 Bft)
12.04.2015 16:55 17,7 C 20,0 C 44 % 1027,5 hPa 0,0 mm 10,1 km/h (2 Bft) N 360 5,3 C 14,2 km/h (3 Bft)
12.04.2015 17:00 17,7 C 19,4 C 44 % 1027,5 hPa 0,0 mm 10,9 km/h (2 Bft) N-NW 337 5,3 C 11,7 km/h (2 Bft)
12.04.2015 17:05 17,7 C 19,2 C 44 % 1027,6 hPa 0,0 mm 9,1 km/h (2 Bft) N-NW 337 5,3 C 7,8 km/h (2 Bft)
12.04.2015 17:10 17,5 C 18,8 C 44 % 1027,6 hPa 0,0 mm 9,1 km/h (2 Bft) NW 315 5,1 C 13,2 km/h (3 Bft)
12.04.2015 17:15 17,5 C 18,7 C 44 % 1027,6 hPa 0,0 mm 10,9 km/h (2 Bft) NW 315 5,1 C 9,8 km/h (2 Bft)
12.04.2015 17:20 17,5 C 18,8 C 44 % 1027,6 hPa 0,0 mm 10,1 km/h (2 Bft) NW 315 5,1 C 10,6 km/h (2 Bft)
12.04.2015 17:25 17,3 C 18,9 C 44 % 1027,6 hPa 0,0 mm 8,0 km/h (2 Bft) SW 225 4,9 C 10,4 km/h (2 Bft)
12.04.2015 17:30 17,1 C 18,6 C 44 % 1027,6 hPa 0,0 mm 8,8 km/h (2 Bft) W-NW 292 4,8 C 6,2 km/h (2 Bft)
12.04.2015 17:35 17,0 C 18,2 C 44 % 1027,6 hPa 0,0 mm 8,5 km/h (2 Bft) NW 315 4,7 C 5,7 km/h (1 Bft)
12.04.2015 17:40 17,0 C 18,1 C 44 % 1027,6 hPa 0,0 mm 8,0 km/h (2 Bft) N-NO 22 4,7 C 8,3 km/h (2 Bft)
12.04.2015 17:45 17,0 C 18,2 C 45 % 1027,4 hPa 0,0 mm 8,8 km/h (2 Bft) N-NW 337 5,0 C 12,7 km/h (3 Bft)
12.04.2015 17:50 16,9 C 18,2 C 45 % 1027,4 hPa 0,0 mm 9,3 km/h (2 Bft) W-NW 292 4,9 C 12,2 km/h (2 Bft)
12.04.2015 17:55 16,8 C 18,1 C 45 % 1027,4 hPa 0,0 mm 7,8 km/h (2 Bft) W-SW 247 4,8 C 7,8 km/h (2 Bft)
12.04.2015 18:00 16,7 C 18,1 C 44 % 1027,4 hPa 0,0 mm 8,0 km/h (2 Bft) W 270 4,4 C 10,1 km/h (2 Bft)
12.04.2015 18:05 16,7 C 17,4 C 45 % 1027,4 hPa 0,0 mm 7,0 km/h (2 Bft) N-NW 337 4,7 C 6,7 km/h (2 Bft)
12.04.2015 18:10 16,6 C 17,1 C 45 % 1027,4 hPa 0,0 mm 6,5 km/h (2 Bft) N-NW 337 4,6 C 5,7 km/h (1 Bft)
12.04.2015 18:15 16,6 C 17,5 C 45 % 1027,4 hPa 0,0 mm 7,3 km/h (2 Bft) W-SW 247 4,6 C 15,0 km/h (3 Bft)
12.04.2015 18:20 16,4 C 17,3 C 46 % 1027,4 hPa 0,0 mm 7,8 km/h (2 Bft) NW 315 4,8 C 9,1 km/h (2 Bft)
12.04.2015 18:25 16,3 C 17,1 C 46 % 1027,3 hPa 0,0 mm 9,3 km/h (2 Bft) NW 315 4,7 C 12,2 km/h (2 Bft)
12.04.2015 18:30 16,0 C 16,9 C 46 % 1027,3 hPa 0,0 mm 8,5 km/h (2 Bft) NW 315 4,4 C 8,5 km/h (2 Bft)
12.04.2015 18:35 15,8 C 16,6 C 46 % 1027,3 hPa 0,0 mm 8,3 km/h (2 Bft) NW 315 4,2 C 10,6 km/h (2 Bft)
12.04.2015 18:40 15,7 C 16,4 C 46 % 1027,3 hPa 0,0 mm 7,3 km/h (2 Bft) N-NO 22 4,1 C 4,9 km/h (1 Bft)
12.04.2015 18:45 15,8 C 16,2 C 46 % 1027,3 hPa 0,0 mm 5,2 km/h (1 Bft) NW 315 4,2 C 7,8 km/h (2 Bft)
12.04.2015 18:50 15,7 C 16,0 C 46 % 1027,3 hPa 0,0 mm 6,0 km/h (2 Bft) NW 315 4,1 C 8,8 km/h (2 Bft)
12.04.2015 18:55 15,5 C 15,8 C 47 % 1027,3 hPa 0,0 mm 6,7 km/h (2 Bft) NW 315 4,2 C 3,6 km/h (1 Bft)
12.04.2015 19:00 15,4 C 15,7 C 47 % 1027,3 hPa 0,0 mm 6,0 km/h (2 Bft) W-NW 292 4,1 C 4,7 km/h (1 Bft)
12.04.2015 19:05 15,3 C 15,5 C 47 % 1027,4 hPa 0,0 mm 5,4 km/h (1 Bft) NW 315 4,1 C 8,5 km/h (2 Bft)
12.04.2015 19:10 15,2 C 15,4 C 47 % 1027,4 hPa 0,0 mm 4,9 km/h (1 Bft) W 270 4,0 C 7,5 km/h (2 Bft)
12.04.2015 19:15 15,0 C 15,2 C 47 % 1027,4 hPa 0,0 mm 5,2 km/h (1 Bft) W 270 3,8 C 4,9 km/h (1 Bft)
12.04.2015 19:20 14,8 C 15,1 C 47 % 1027,4 hPa 0,0 mm 4,4 km/h (1 Bft) W-NW 292 3,6 C 0,0 km/h (0 Bft)
12.04.2015 19:25 14,5 C 14,8 C 48 % 1027,2 hPa 0,0 mm 3,4 km/h (1 Bft) NW 315 3,6 C 4,7 km/h (1 Bft)
12.04.2015 19:30 14,3 C 14,8 C 48 % 1027,2 hPa 0,0 mm 2,8 km/h (1 Bft) W 270 3,4 C 3,6 km/h (1 Bft)
12.04.2015 19:35 13,9 C 14,5 C 49 % 1027,2 hPa 0,0 mm 2,3 km/h (1 Bft) W-SW 247 3,4 C 0,0 km/h (0 Bft)
12.04.2015 19:40 13,8 C 14,4 C 49 % 1027,2 hPa 0,0 mm 2,3 km/h (1 Bft) W-SW 247 3,3 C 0,0 km/h (0 Bft)
12.04.2015 19:45 13,5 C 14,2 C 51 % 1027,3 hPa 0,0 mm 2,1 km/h (1 Bft) S-SW 202 3,6 C 2,6 km/h (1 Bft)
12.04.2015 19:50 13,3 C 14,1 C 53 % 1027,3 hPa 0,0 mm 2,3 km/h (1 Bft) S 180 3,9 C 2,6 km/h (1 Bft)
12.04.2015 19:55 13,0 C 13,7 C 54 % 1027,3 hPa 0,0 mm 3,1 km/h (1 Bft) S 180 3,9 C 4,4 km/h (1 Bft)
12.04.2015 20:00 12,8 C 13,2 C 56 % 1027,3 hPa 0,0 mm 2,8 km/h (1 Bft) S 180 4,2 C 4,4 km/h (1 Bft)
12.04.2015 20:05 12,6 C 12,6 C 56 % 1027,4 hPa 0,0 mm 2,1 km/h (1 Bft) S 180 4,1 C 4,4 km/h (1 Bft)
12.04.2015 20:10 12,4 C 12,4 C 56 % 1027,4 hPa 0,0 mm 2,1 km/h (1 Bft) S-SO 157 3,9 C 4,1 km/h (1 Bft)
12.04.2015 20:15 12,2 C 12,2 C 57 % 1027,4 hPa 0,0 mm 2,8 km/h (1 Bft) S 180 3,9 C 5,4 km/h (1 Bft)
12.04.2015 20:20 12,0 C 12,0 C 57 % 1027,4 hPa 0,0 mm 3,1 km/h (1 Bft) S-SO 157 3,8 C 0,0 km/h (0 Bft)
12.04.2015 20:25 11,3 C 11,4 C 57 % 1027,8 hPa 0,0 mm 1,0 km/h (0 Bft) SO 135 3,1 C 0,0 km/h (0 Bft)
12.04.2015 20:30 11,3 C 11,2 C 58 % 1027,8 hPa 0,0 mm 1,6 km/h (1 Bft) SW 225 3,3 C 8,0 km/h (2 Bft)
12.04.2015 20:35 11,6 C 11,5 C 58 % 1027,8 hPa 0,0 mm 3,6 km/h (1 Bft) S-SO 157 3,6 C 3,1 km/h (1 Bft)
12.04.2015 20:40 11,3 C 11,3 C 58 % 1027,8 hPa 0,0 mm 3,6 km/h (1 Bft) W-SW 247 3,3 C 7,5 km/h (2 Bft)
12.04.2015 20:45 10,6 C 10,7 C 60 % 1028,1 hPa 0,0 mm 3,4 km/h (1 Bft) S 180 3,2 C 4,7 km/h (1 Bft)
12.04.2015 20:50 10,7 C 10,6 C 60 % 1028,1 hPa 0,0 mm 2,8 km/h (1 Bft) SO 135 3,3 C 6,5 km/h (2 Bft)
12.04.2015 20:55 10,5 C 10,4 C 60 % 1028,1 hPa 0,0 mm 1,6 km/h (1 Bft) S-SO 157 3,1 C 0,0 km/h (0 Bft)
12.04.2015 21:00 10,4 C 10,2 C 60 % 1028,1 hPa 0,0 mm 1,0 km/h (0 Bft) SO 135 3,0 C 3,1 km/h (1 Bft)
12.04.2015 21:05 10,2 C 10,0 C 60 % 1028,1 hPa 0,0 mm 0,5 km/h (0 Bft) W-SW 247 2,8 C 2,8 km/h (1 Bft)
12.04.2015 21:10 10,1 C 9,8 C 60 % 1028,1 hPa 0,0 mm 0,3 km/h (0 Bft) S 180 2,7 C 0,0 km/h (0 Bft)
12.04.2015 21:15 10,1 C 9,8 C 61 % 1028,1 hPa 0,0 mm 0,3 km/h (0 Bft) S-SO 157 2,9 C 0,0 km/h (0 Bft)
12.04.2015 21:20 9,9 C 9,6 C 61 % 1028,1 hPa 0,0 mm 0,5 km/h (0 Bft) S-SO 157 2,7 C 0,0 km/h (0 Bft)
12.04.2015 21:25 9,7 C 9,4 C 62 % 1028,2 hPa 0,0 mm 0,5 km/h (0 Bft) S-SO 157 2,8 C 0,0 km/h (0 Bft)
12.04.2015 21:30 9,5 C 9,2 C 63 % 1028,2 hPa 0,0 mm 0,3 km/h (0 Bft) S-SO 157 2,8 C 0,0 km/h (0 Bft)
12.04.2015 21:35 9,3 C 8,9 C 63 % 1028,2 hPa 0,0 mm 0,0 km/h (0 Bft) S-SO 157 2,6 C 0,0 km/h (0 Bft)
12.04.2015 21:40 9,2 C 8,8 C 64 % 1028,2 hPa 0,0 mm 0,0 km/h (0 Bft) S-SO 157 2,8 C 0,0 km/h (0 Bft)
12.04.2015 21:45 9,1 C 8,6 C 65 % 1028,1 hPa 0,0 mm 0,0 km/h (0 Bft) SO 135 2,9 C 0,0 km/h (0 Bft)
12.04.2015 21:50 9,1 C 8,6 C 65 % 1028,1 hPa 0,0 mm 0,0 km/h (0 Bft) S-SO 157 2,9 C 0,0 km/h (0 Bft)
12.04.2015 21:55 8,9 C 8,4 C 66 % 1028,1 hPa 0,0 mm 0,0 km/h (0 Bft) S 180 2,9 C 0,0 km/h (0 Bft)
12.04.2015 22:00 8,8 C 8,3 C 66 % 1028,1 hPa 0,0 mm 0,0 km/h (0 Bft) SO 135 2,8 C 0,0 km/h (0 Bft)
12.04.2015 22:05 8,5 C 8,0 C 66 % 1028,2 hPa 0,0 mm 0,0 km/h (0 Bft) SO 135 2,5 C 0,0 km/h (0 Bft)
12.04.2015 22:10 8,4 C 7,9 C 67 % 1028,2 hPa 0,0 mm 0,0 km/h (0 Bft) S 180 2,6 C 0,0 km/h (0 Bft)
12.04.2015 22:15 8,4 C 7,8 C 68 % 1028,2 hPa 0,0 mm 0,0 km/h (0 Bft) SO 135 2,8 C 0,0 km/h (0 Bft)
12.04.2015 22:20 8,2 C 7,7 C 67 % 1028,2 hPa 0,0 mm 0,0 km/h (0 Bft) SO 135 2,4 C 0,0 km/h (0 Bft)
12.04.2015 22:25 8,0 C 7,5 C 67 % 1028,1 hPa 0,0 mm 0,0 km/h (0 Bft) S 180 2,3 C 0,0 km/h (0 Bft)
12.04.2015 22:30 7,6 C 7,2 C 67 % 1028,1 hPa 0,0 mm 0,0 km/h (0 Bft) S 180 1,9 C 0,0 km/h (0 Bft)
12.04.2015 22:35 7,6 C 7,1 C 68 % 1028,1 hPa 0,0 mm 0,0 km/h (0 Bft) S 180 2,1 C 0,0 km/h (0 Bft)
12.04.2015 22:40 7,3 C 6,9 C 68 % 1028,1 hPa 0,0 mm 0,0 km/h (0 Bft) S 180 1,8 C 0,0 km/h (0 Bft)
12.04.2015 22:45 7,5 C 7,0 C 69 % 1028,1 hPa 0,0 mm 0,0 km/h (0 Bft) O-NO 67 2,2 C 0,0 km/h (0 Bft)
12.04.2015 22:50 7,5 C 7,1 C 69 % 1028,1 hPa 0,0 mm 0,0 km/h (0 Bft) NO 45 2,2 C 0,0 km/h (0 Bft)
12.04.2015 22:55 7,4 C 7,0 C 69 % 1028,1 hPa 0,0 mm 0,0 km/h (0 Bft) N-NO 22 2,1 C 0,0 km/h (0 Bft)
12.04.2015 23:00 7,6 C 7,1 C 70 % 1028,1 hPa 0,0 mm 0,0 km/h (0 Bft) O 90 2,5 C 0,0 km/h (0 Bft)
12.04.2015 23:05 7,8 C 7,3 C 70 % 1028,1 hPa 0,0 mm 0,0 km/h (0 Bft) SO 135 2,7 C 0,0 km/h (0 Bft)
12.04.2015 23:10 7,6 C 7,1 C 70 % 1028,1 hPa 0,0 mm 0,0 km/h (0 Bft) SO 135 2,5 C 0,0 km/h (0 Bft)
12.04.2015 23:15 7,5 C 7,0 C 70 % 1028,1 hPa 0,0 mm 0,0 km/h (0 Bft) SO 135 2,4 C 0,0 km/h (0 Bft)
12.04.2015 23:20 7,3 C 6,9 C 70 % 1028,1 hPa 0,0 mm 0,0 km/h (0 Bft) SO 135 2,2 C 0,0 km/h (0 Bft)
12.04.2015 23:25 7,3 C 6,9 C 70 % 1027,9 hPa 0,0 mm 0,0 km/h (0 Bft) SO 135 2,2 C 0,0 km/h (0 Bft)
12.04.2015 23:30 7,4 C 6,9 C 71 % 1027,9 hPa 0,0 mm 0,0 km/h (0 Bft) S 180 2,5 C 0,0 km/h (0 Bft)
12.04.2015 23:35 7,5 C 7,0 C 71 % 1027,9 hPa 0,0 mm 0,0 km/h (0 Bft) S-SO 157 2,6 C 0,0 km/h (0 Bft)
12.04.2015 23:40 7,4 C 6,9 C 70 % 1027,9 hPa 0,0 mm 0,0 km/h (0 Bft) SW 225 2,3 C 0,0 km/h (0 Bft)
12.04.2015 23:45 7,0 C 6,6 C 70 % 1027,9 hPa 0,0 mm 0,0 km/h (0 Bft) SW 225 1,9 C 0,0 km/h (0 Bft)
12.04.2015 23:50 7,1 C 6,6 C 70 % 1027,9 hPa 0,0 mm 0,0 km/h (0 Bft) S 180 2,0 C 0,0 km/h (0 Bft)
12.04.2015 23:55 7,4 C 6,8 C 71 % 1027,9 hPa 0,0 mm 0,0 km/h (0 Bft) SO 135 2,5 C 0,0 km/h (0 Bft)
_ Min-Zeit 07:05 07:05 16:20 19:40 - 23:55 - - 02:30 23:55
Minimum _ 6,2 C 6,1 C 41 % 1027,2 hPa - 0,0 km/h (0 Bft) - - 0,8 C 0,0 km/h (0 Bft)
_ Max-Zeit 16:10 14:05 07:20 12:20 23:55 17:15 - - 11:50 05:35
Maximum _ 18,9 C 24,1 C 75 % 1030,6 hPa 0,0 mm 10,9 km/h
NW (2 Bft)
- - 6,5 C 22,0 km/h
SW (4 Bft)
Durchschnitt _ 11,6 C 13,4 C 59 % 1028,7 hPa #0,0 mm 3,8 km/h (1 Bft) S - 3,7 C 4,8 km/h (1 Bft)